Time,TemperatureF,DewpointF,PressureIn,WindDirection,WindDirectionDegrees,WindSpeedMPH,WindSpeedGustMPH,Humidity,HourlyPrecipIn,Conditions,Clouds,dailyrainin,SolarRadiationWatts/m^2,SoftwareType,DateUTC
2013-05-25 00:02:00,57.0,42.0,-100.00,ESE,118,2.0,5.0,58,0.00,,,0.00,0.000000,,2013-05-25 05:02:00,
2013-05-25 00:32:00,56.0,41.0,-100.00,SW,221,2.0,5.0,57,0.00,,,0.00,0.000000,,2013-05-25 05:32:00,
2013-05-25 00:43:00,56.0,41.0,-100.00,SW,221,2.0,5.0,57,0.00,,,0.00,0.000000,,2013-05-25 05:43:00,
2013-05-25 00:52:00,56.0,41.0,-100.00,SW,221,2.0,5.0,57,0.00,,,0.00,0.000000,,2013-05-25 05:52:00,
2013-05-25 01:02:00,56.0,41.0,-100.00,SW,221,2.0,5.0,57,0.00,,,0.00,0.000000,,2013-05-25 06:02:00,
2013-05-25 01:32:00,53.0,47.0,-100.00,SW,218,5.0,8.0,80,0.01,,,0.01,0.000000,,2013-05-25 06:32:00,
2013-05-25 01:42:00,53.0,47.0,-100.00,SW,218,5.0,8.0,80,0.01,,,0.01,0.000000,,2013-05-25 06:42:00,
2013-05-25 01:52:00,53.0,47.0,-100.00,SW,218,5.0,8.0,80,0.01,,,0.01,0.000000,,2013-05-25 06:52:00,
2013-05-25 02:01:00,53.0,47.0,-100.00,SW,218,5.0,8.0,80,0.01,,,0.01,0.000000,,2013-05-25 07:01:00,
2013-05-25 02:32:00,54.0,48.0,-100.00,SSW,193,4.0,10.0,79,0.00,,,0.01,0.000000,,2013-05-25 07:32:00,
2013-05-25 02:42:00,54.0,48.0,-100.00,SSW,193,4.0,10.0,79,0.00,,,0.01,0.000000,,2013-05-25 07:42:00,
2013-05-25 02:52:00,54.0,48.0,-100.00,SSW,193,4.0,10.0,79,0.00,,,0.01,0.000000,,2013-05-25 07:52:00,
2013-05-25 03:02:00,54.0,48.0,-100.00,SSW,193,4.0,10.0,79,0.00,,,0.01,0.000000,,2013-05-25 08:02:00,
2013-05-25 03:32:00,53.0,48.0,-100.00,SE,141,2.0,8.0,83,0.00,,,0.01,0.000000,,2013-05-25 08:32:00,
2013-05-25 03:42:00,53.0,48.0,-100.00,SE,141,2.0,8.0,83,0.00,,,0.01,0.000000,,2013-05-25 08:42:00,
2013-05-25 03:52:00,53.0,48.0,-100.00,SE,141,2.0,8.0,83,0.00,,,0.01,0.000000,,2013-05-25 08:52:00,
2013-05-25 04:02:00,53.0,48.0,-100.00,SE,141,2.0,8.0,83,0.00,,,0.01,0.000000,,2013-05-25 09:02:00,
2013-05-25 04:33:00,53.0,49.0,-100.00,ESE,121,3.0,7.0,87,0.00,,,0.01,0.000000,,2013-05-25 09:33:00,
2013-05-25 04:43:00,53.0,49.0,-100.00,ESE,121,3.0,7.0,87,0.00,,,0.01,0.000000,,2013-05-25 09:43:00,
2013-05-25 04:53:00,53.0,49.0,-100.00,ESE,121,3.0,7.0,87,0.00,,,0.01,0.000000,,2013-05-25 09:53:00,
2013-05-25 05:02:00,53.0,49.0,-100.00,ESE,121,3.0,7.0,87,0.00,,,0.01,0.000000,,2013-05-25 10:02:00,
2013-05-25 05:33:00,52.0,49.0,-100.00,ENE,77,2.0,4.0,88,0.00,,,0.01,0.000000,,2013-05-25 10:33:00,
2013-05-25 05:42:00,52.0,49.0,-100.00,ENE,77,2.0,4.0,88,0.00,,,0.01,0.000000,,2013-05-25 10:42:00,
2013-05-25 05:52:00,52.0,49.0,-100.00,ENE,77,2.0,4.0,88,0.00,,,0.01,0.000000,,2013-05-25 10:52:00,
2013-05-25 06:02:00,52.0,49.0,-100.00,ENE,77,2.0,4.0,88,0.00,,,0.01,0.000000,,2013-05-25 11:02:00,
2013-05-25 06:32:00,52.0,50.0,-100.00,East,82,3.0,6.0,94,0.01,,,0.02,2.000000,,2013-05-25 11:32:00,
2013-05-25 06:42:00,52.0,50.0,-100.00,East,82,3.0,6.0,94,0.01,,,0.02,2.000000,,2013-05-25 11:42:00,
2013-05-25 06:52:00,52.0,50.0,-100.00,East,82,3.0,6.0,94,0.01,,,0.02,2.000000,,2013-05-25 11:52:00,
2013-05-25 07:01:00,52.0,50.0,-100.00,East,82,3.0,6.0,94,0.01,,,0.02,2.000000,,2013-05-25 12:01:00,
2013-05-25 07:32:00,53.0,51.0,-100.00,East,81,3.0,6.0,93,0.00,,,0.02,36.000000,,2013-05-25 12:32:00,
2013-05-25 07:42:00,53.0,51.0,-100.00,East,81,3.0,6.0,93,0.00,,,0.02,36.000000,,2013-05-25 12:42:00,
2013-05-25 07:52:00,53.0,51.0,-100.00,East,81,3.0,6.0,93,0.00,,,0.02,36.000000,,2013-05-25 12:52:00,
2013-05-25 08:02:00,53.0,51.0,-100.00,East,81,3.0,6.0,93,0.00,,,0.02,36.000000,,2013-05-25 13:02:00,
2013-05-25 08:32:00,55.0,50.0,-100.00,ESE,106,6.0,10.0,83,0.00,,,0.02,82.000000,,2013-05-25 13:32:00,
2013-05-25 08:42:00,55.0,50.0,-100.00,ESE,106,6.0,10.0,83,0.00,,,0.02,82.000000,,2013-05-25 13:42:00,
2013-05-25 08:52:00,55.0,50.0,-100.00,ESE,106,6.0,10.0,83,0.00,,,0.02,82.000000,,2013-05-25 13:52:00,
2013-05-25 09:02:00,55.0,50.0,-100.00,ESE,106,6.0,10.0,83,0.00,,,0.02,82.000000,,2013-05-25 14:02:00,
2013-05-25 09:32:00,58.0,50.0,-100.00,ESE,118,7.0,14.0,74,0.00,,,0.02,167.000000,,2013-05-25 14:32:00,
2013-05-25 09:42:00,58.0,50.0,-100.00,ESE,118,7.0,14.0,74,0.00,,,0.02,167.000000,,2013-05-25 14:42:00,
2013-05-25 09:52:00,58.0,50.0,-100.00,ESE,118,7.0,14.0,74,0.00,,,0.02,167.000000,,2013-05-25 14:52:00,
2013-05-25 10:01:00,58.0,50.0,-100.00,ESE,118,7.0,14.0,74,0.00,,,0.02,167.000000,,2013-05-25 15:01:00,
2013-05-25 10:33:00,60.0,48.0,-100.00,SE,132,7.0,14.0,64,0.00,,,0.02,201.000000,,2013-05-25 15:33:00,
2013-05-25 10:43:00,60.0,48.0,-100.00,SE,132,7.0,14.0,64,0.00,,,0.02,201.000000,,2013-05-25 15:43:00,
2013-05-25 10:53:00,60.0,48.0,-100.00,SE,132,7.0,14.0,64,0.00,,,0.02,201.000000,,2013-05-25 15:53:00,
2013-05-25 11:03:00,60.0,48.0,-100.00,SE,132,7.0,14.0,64,0.00,,,0.02,201.000000,,2013-05-25 16:03:00,
2013-05-25 11:33:00,60.0,46.0,-100.00,ESE,119,8.0,15.0,59,0.00,,,0.02,228.000000,,2013-05-25 16:33:00,
2013-05-25 11:42:00,60.0,46.0,-100.00,ESE,119,8.0,15.0,59,0.00,,,0.02,228.000000,,2013-05-25 16:42:00,
2013-05-25 11:52:00,60.0,46.0,-100.00,ESE,119,8.0,15.0,59,0.00,,,0.02,228.000000,,2013-05-25 16:52:00,
2013-05-25 12:02:00,60.0,46.0,-100.00,ESE,119,8.0,15.0,59,0.00,,,0.02,228.000000,,2013-05-25 17:02:00,
2013-05-25 12:33:00,63.0,46.0,-100.00,ESE,121,8.0,15.0,54,0.00,,,0.02,367.000000,,2013-05-25 17:33:00,
2013-05-25 12:42:00,63.0,46.0,-100.00,ESE,121,8.0,15.0,54,0.00,,,0.02,367.000000,,2013-05-25 17:42:00,
2013-05-25 12:52:00,63.0,46.0,-100.00,ESE,121,8.0,15.0,54,0.00,,,0.02,367.000000,,2013-05-25 17:52:00,
2013-05-25 13:01:00,63.0,46.0,-100.00,ESE,121,8.0,15.0,54,0.00,,,0.02,367.000000,,2013-05-25 18:01:00,
2013-05-25 13:32:00,66.0,46.0,-100.00,SE,131,8.0,14.0,49,0.00,,,0.02,451.000000,,2013-05-25 18:32:00,
2013-05-25 13:42:00,66.0,46.0,-100.00,SE,131,8.0,14.0,49,0.00,,,0.02,451.000000,,2013-05-25 18:42:00,
2013-05-25 13:52:00,66.0,46.0,-100.00,SE,131,8.0,14.0,49,0.00,,,0.02,451.000000,,2013-05-25 18:52:00,
2013-05-25 14:01:00,66.0,46.0,-100.00,SE,131,8.0,14.0,49,0.00,,,0.02,451.000000,,2013-05-25 19:01:00,
2013-05-25 14:32:00,63.0,46.0,-100.00,SE,131,7.0,17.0,53,0.00,,,0.02,322.000000,,2013-05-25 19:32:00,
2013-05-25 14:42:00,63.0,46.0,-100.00,SE,131,7.0,17.0,53,0.00,,,0.02,322.000000,,2013-05-25 19:42:00,
2013-05-25 14:52:00,63.0,46.0,-100.00,SE,131,7.0,17.0,53,0.00,,,0.02,322.000000,,2013-05-25 19:52:00,
2013-05-25 15:02:00,63.0,46.0,-100.00,SE,131,7.0,17.0,53,0.00,,,0.02,322.000000,,2013-05-25 20:02:00,
2013-05-25 15:32:00,63.0,46.0,-100.00,ESE,119,9.0,15.0,53,0.00,,,0.02,190.000000,,2013-05-25 20:32:00,
2013-05-25 15:42:00,63.0,46.0,-100.00,ESE,119,9.0,15.0,53,0.00,,,0.02,190.000000,,2013-05-25 20:42:00,
2013-05-25 15:52:00,63.0,46.0,-100.00,ESE,119,9.0,15.0,53,0.00,,,0.02,190.000000,,2013-05-25 20:52:00,
2013-05-25 16:02:00,63.0,46.0,-100.00,ESE,119,9.0,15.0,53,0.00,,,0.02,190.000000,,2013-05-25 21:02:00,
2013-05-25 16:33:00,66.0,48.0,-100.00,ESE,102,10.0,18.0,52,0.00,,,0.02,419.000000,,2013-05-25 21:33:00,
2013-05-25 16:43:00,66.0,48.0,-100.00,ESE,102,10.0,18.0,52,0.00,,,0.02,419.000000,,2013-05-25 21:43:00,
2013-05-25 16:53:00,66.0,48.0,-100.00,ESE,102,10.0,18.0,52,0.00,,,0.02,419.000000,,2013-05-25 21:53:00,
2013-05-25 17:03:00,66.0,48.0,-100.00,ESE,102,10.0,18.0,52,0.00,,,0.02,419.000000,,2013-05-25 22:03:00,
2013-05-25 17:33:00,64.0,44.0,-100.00,SE,132,8.0,16.0,48,0.00,,,0.02,455.000000,,2013-05-25 22:33:00,
2013-05-25 17:42:00,64.0,44.0,-100.00,SE,132,8.0,16.0,48,0.00,,,0.02,455.000000,,2013-05-25 22:42:00,
2013-05-25 17:52:00,64.0,44.0,-100.00,SE,132,8.0,16.0,48,0.00,,,0.02,455.000000,,2013-05-25 22:52:00,
2013-05-25 18:02:00,64.0,44.0,-100.00,SE,132,8.0,16.0,48,0.00,,,0.02,455.000000,,2013-05-25 23:02:00,
2013-05-25 18:32:00,65.0,44.0,-100.00,SE,126,8.0,16.0,47,0.00,,,0.02,378.000000,,2013-05-25 23:32:00,
2013-05-25 18:42:00,65.0,44.0,-100.00,SE,126,8.0,16.0,47,0.00,,,0.02,378.000000,,2013-05-25 23:42:00,
2013-05-25 18:52:00,65.0,44.0,-100.00,SE,126,8.0,16.0,47,0.00,,,0.02,378.000000,,2013-05-25 23:52:00,
2013-05-25 19:01:00,65.0,44.0,-100.00,SE,126,8.0,16.0,47,0.00,,,0.02,378.000000,,2013-05-26 00:01:00,
2013-05-25 19:32:00,64.0,43.0,-100.00,SE,136,7.0,14.0,46,0.00,,,0.02,244.000000,,2013-05-26 00:32:00,
2013-05-25 19:43:00,64.0,43.0,-100.00,SE,136,7.0,14.0,46,0.00,,,0.02,244.000000,,2013-05-26 00:43:00,
2013-05-25 19:52:00,64.0,43.0,-100.00,SE,136,7.0,14.0,46,0.00,,,0.02,244.000000,,2013-05-26 00:52:00,
2013-05-25 20:01:00,64.0,43.0,-100.00,SE,136,7.0,14.0,46,0.00,,,0.02,244.000000,,2013-05-26 01:01:00,
2013-05-25 20:32:00,60.0,43.0,-100.00,ESE,118,4.0,14.0,54,0.00,,,0.02,68.000000,,2013-05-26 01:32:00,
2013-05-25 20:42:00,60.0,43.0,-100.00,ESE,118,4.0,14.0,54,0.00,,,0.02,68.000000,,2013-05-26 01:42:00,
2013-05-25 20:53:00,60.0,43.0,-100.00,ESE,118,4.0,14.0,54,0.00,,,0.02,68.000000,,2013-05-26 01:53:00,
2013-05-25 21:02:00,60.0,43.0,-100.00,ESE,118,4.0,14.0,54,0.00,,,0.02,68.000000,,2013-05-26 02:02:00,
2013-05-25 21:32:00,56.0,42.0,-100.00,SE,133,3.0,9.0,60,0.00,,,0.02,11.000000,,2013-05-26 02:32:00,
2013-05-25 21:42:00,56.0,42.0,-100.00,SE,133,3.0,9.0,60,0.00,,,0.02,11.000000,,2013-05-26 02:42:00,
2013-05-25 21:52:00,56.0,42.0,-100.00,SE,133,3.0,9.0,60,0.00,,,0.02,11.000000,,2013-05-26 02:52:00,
2013-05-25 22:01:00,56.0,42.0,-100.00,SE,133,3.0,9.0,60,0.00,,,0.02,11.000000,,2013-05-26 03:01:00,
2013-05-25 22:33:00,49.0,43.0,-100.00,ESE,117,2.0,4.0,79,0.00,,,0.02,0.000000,,2013-05-26 03:33:00,
2013-05-25 22:43:00,49.0,43.0,-100.00,ESE,117,2.0,4.0,79,0.00,,,0.02,0.000000,,2013-05-26 03:43:00,
2013-05-25 22:53:00,49.0,43.0,-100.00,ESE,117,2.0,4.0,79,0.00,,,0.02,0.000000,,2013-05-26 03:53:00,
2013-05-25 23:02:00,49.0,43.0,-100.00,ESE,117,2.0,4.0,79,0.00,,,0.02,0.000000,,2013-05-26 04:02:00,
2013-05-25 23:33:00,47.0,43.0,-100.00,ESE,111,2.0,4.0,86,0.00,,,0.02,0.000000,,2013-05-26 04:33:00,
2013-05-25 23:42:00,47.0,43.0,-100.00,ESE,111,2.0,4.0,86,0.00,,,0.02,0.000000,,2013-05-26 04:42:00,
2013-05-25 23:52:00,47.0,43.0,-100.00,ESE,111,2.0,4.0,86,0.00,,,0.02,0.000000,,2013-05-26 04:52:00,